QPF
0.00 0.00 0.00 0.00 0.00 0.00 0.00 0.00 0.00 0.00 0.00 0.00 0.00 0.00 0.00 0.00 0.00 0.01 0.05 0.08 0.09 0.11 0.13 0.14 0.13 0.11 0.11 0.13 0.13 0.12 0.12 0.10 0.10 0.10 0.09 0.08 0.07 0.07 0.05 0.03 0.02 0.02 0.01 0.01
0.00 0.00 0.00 0.00 0.00 0.00 0.00 0.00 0.00 0.01 0.00 0.00 0.00 0.00 0.00 0.00 0.00 0.01 0.03 0.06 0.07 0.08 0.11 0.12 0.12 0.12 0.11 0.12 0.11 0.08 0.08 0.07 0.08 0.08 0.08 0.06 0.06 0.06 0.05 0.03 0.03 0.01 0.00 0.00
0.00 0.00 0.00 0.00 0.00 0.00 0.00 0.00 0.00 0.00 0.00 0.00 0.01 0.02 0.01 0.01 0.01 0.02 0.03 0.04 0.04 0.06 0.09 0.08 0.09 0.14 0.14 0.12 0.09 0.06 0.05 0.06 0.07 0.07 0.06 0.06 0.06 0.05 0.04 0.04 0.03 0.01 0.00 0.00
0.00 0.00 0.00 0.00 0.00 0.00 0.00 0.00 0.00 0.00 0.00 0.01 0.01 0.05 0.03 0.01 0.00 0.02 0.02 0.03 0.04 0.05 0.07 0.08 0.09 0.12 0.13 0.09 0.06 0.05 0.04 0.06 0.07 0.06 0.06 0.06 0.06 0.06 0.04 0.03 0.02 0.01 0.00 0.00
0.00 0.00 0.00 0.00 0.00 0.00 0.00 0.00 0.00 0.00 0.00 0.01 0.02 0.03 0.04 0.01 0.01 0.01 0.02 0.02 0.03 0.03 0.05 0.07 0.09 0.09 0.08 0.06 0.04 0.04 0.06 0.08 0.07 0.07 0.06 0.05 0.05 0.04 0.03 0.03 0.02 0.01 0.00 0.00
0.00 0.00 0.00 0.00 0.00 0.00 0.00 0.00 0.00 0.00 0.02 0.07 0.05 0.03 0.03 0.01 0.01 0.01 0.02 0.03 0.04 0.03 0.05 0.08 0.07 0.06 0.05 0.04 0.03 0.04 0.06 0.07 0.05 0.05 0.05 0.05 0.05 0.03 0.02 0.03 0.02 0.00 0.00 0.00
0.00 0.00 0.00 0.00 0.00 0.00 0.00 0.01 0.06 0.12 0.16 0.14 0.04 0.02 0.02 0.00 0.00 0.00 0.01 0.01 0.02 0.02 0.04 0.05 0.04 0.03 0.03 0.03 0.03 0.04 0.05 0.04 0.03 0.03 0.04 0.04 0.04 0.02 0.02 0.02 0.01 0.00 0.00 0.00
0.00 0.00 0.00 0.00 0.00 0.01 0.01 0.01 0.06 0.10 0.11 0.08 0.03 0.03 0.02 0.00 0.00 0.00 0.00 0.00 0.00 0.01 0.03 0.03 0.02 0.02 0.02 0.01 0.02 0.03 0.03 0.03 0.03 0.02 0.03 0.03 0.02 0.02 0.02 0.02 0.01 0.00 0.00 0.00
0.00 0.01 0.01 0.00 0.00 0.00 0.00 0.00 0.01 0.01 0.01 0.03 0.02 0.01 0.02 0.01 0.00 0.00 0.00 0.00 0.00 0.00 0.01 0.02 0.02 0.02 0.02 0.01 0.01 0.02 0.02 0.02 0.03 0.02 0.02 0.01 0.01 0.02 0.02 0.01 0.00 0.00 0.00 0.00
0.00 0.02 0.01 0.01 0.00 0.00 0.00 0.00 0.01 0.01 0.04 0.05 0.05 0.05 0.06 0.04 0.01 0.00 0.00 0.00 0.00 0.00 0.00 0.01 0.01 0.01 0.01 0.01 0.01 0.01 0.02 0.02 0.03 0.02 0.01 0.01 0.01 0.01 0.01 0.01 0.00 0.00 0.00 0.00
0.00 0.01 0.02 0.02 0.01 0.00 0.00 0.00 0.00 0.01 0.01 0.03 0.09 0.12 0.08 0.03 0.01 0.00 0.00 0.00 0.00 0.00 0.00 0.00 0.00 0.01 0.01 0.01 0.01 0.01 0.01 0.01 0.01 0.01 0.01 0.00 0.00 0.00 0.01 0.00 0.00 0.00 0.00 0.00
0.02 0.02 0.02 0.04 0.02 0.01 0.01 0.01 0.00 0.02 0.04 0.02 0.04 0.07 0.03 0.02 0.01 0.00 0.00 0.00 0.00 0.00 0.00 0.00 0.00 0.01 0.01 0.01 0.01 0.01 0.01 0.00 0.01 0.01 0.01 0.01 0.01 0.01 0.00 0.00 0.00 0.00 0.00 0.00
0.04 0.04 0.04 0.07 0.06 0.04 0.02 0.01 0.01 0.00 0.01 0.01 0.03 0.05 0.02 0.01 0.00 0.00 0.00 0.00 0.00 0.00 0.00 0.00 0.00 0.00 0.00 0.00 0.01 0.00 0.00 0.00 0.01 0.01 0.01 0.01 0.01 0.01 0.01 0.00 0.00 0.00 0.00 0.00
0.03 0.04 0.04 0.09 0.11 0.12 0.09 0.04 0.01 0.01 0.01 0.00 0.01 0.02 0.03 0.03 0.01 0.00 0.00 0.00 0.00 0.00 0.00 0.00 0.00 0.00 0.00 0.00 0.00 0.00 0.00 0.00 0.00 0.01 0.01 0.01 0.01 0.01 0.01 0.00 0.00 0.00 0.00 0.00
0.02 0.03 0.03 0.04 0.06 0.08 0.10 0.07 0.03 0.01 0.01 0.01 0.02 0.02 0.04 0.07 0.03 0.01 0.00 0.00 0.00 0.00 0.00 0.00 0.00 0.00 0.00 0.00 0.00 0.00 0.00 0.00 0.00 0.01 0.01 0.01 0.01 0.01 0.00 0.00 0.00 0.00 0.00 0.00
0.04 0.04 0.03 0.03 0.03 0.03 0.06 0.05 0.02 0.01 0.01 0.01 0.01 0.01 0.02 0.03 0.02 0.00 0.00 0.01 0.01 0.01 0.00 0.00 0.00 0.00 0.00 0.00 0.00 0.00 0.00 0.00 0.00 0.01 0.01 0.01 0.01 0.00 0.00 0.00 0.00 0.00 0.00 0.00
0.08 0.07 0.06 0.03 0.02 0.04 0.05 0.03 0.01 0.00 0.00 0.01 0.01 0.01 0.01 0.02 0.01 0.00 0.00 0.00 0.01 0.01 0.00 0.00 0.00 0.00 0.00 0.00 0.00 0.00 0.00 0.00 0.00 0.01 0.01 0.00 0.00 0.00 0.00 0.00 0.00 0.00 0.00 0.01
0.08 0.10 0.08 0.04 0.06 0.07 0.03 0.01 0.01 0.00 0.00 0.00 0.00 0.01 0.01 0.01 0.01 0.00 0.00 0.00 0.00 0.01 0.00 0.00 0.00 0.00 0.00 0.00 0.00 0.00 0.00 0.00 0.00 0.00 0.00 0.00 0.00 0.00 0.00 0.00 0.00 0.01 0.01 0.02
0.04 0.09 0.07 0.05 0.11 0.10 0.05 0.02 0.01 0.01 0.02 0.00 0.00 0.00 0.00 0.01 0.00 0.00 0.00 0.00 0.00 0.00 0.00 0.00 0.00 0.00 0.00 0.00 0.00 0.00 0.00 0.00 0.00 0.00 0.00 0.00 0.00 0.00 0.00 0.00 0.00 0.01 0.01 0.01
0.05 0.08 0.08 0.07 0.11 0.13 0.09 0.04 0.01 0.01 0.04 0.01 0.00 0.00 0.00 0.01 0.02 0.03 0.01 0.00 0.00 0.00 0.00 0.00 0.00 0.00 0.00 0.00 0.00 0.00 0.00 0.00 0.00 0.00 0.00 0.01 0.01 0.01 0.01 0.00 0.01 0.01 0.01 0.01
0.12 0.13 0.12 0.09 0.11 0.09 0.09 0.08 0.05 0.07 0.08 0.01 0.00 0.00 0.01 0.01 0.01 0.01 0.01 0.00 0.00 0.00 0.00 0.00 0.00 0.00 0.00 0.00 0.00 0.00 0.00 0.01 0.01 0.01 0.02 0.01 0.01 0.01 0.01 0.01 0.01 0.00 0.00 0.00
0.15 0.15 0.13 0.12 0.14 0.14 0.11 0.13 0.13 0.13 0.05 0.00 0.00 0.00 0.00 0.00 0.00 0.00 0.00 0.00 0.00 0.00 0.00 0.00 0.00 0.00 0.00 0.00 0.00 0.01 0.01 0.02 0.02 0.02 0.02 0.02 0.02 0.01 0.01 0.01 0.00 0.00 0.00 0.00
0.13 0.14 0.12 0.12 0.12 0.12 0.11 0.10 0.10 0.06 0.02 0.01 0.00 0.00 0.00 0.00 0.00 0.00 0.00 0.00 0.00 0.00 0.00 0.00 0.00 0.00 0.01 0.01 0.01 0.01 0.01 0.02 0.03 0.02 0.02 0.02 0.02 0.01 0.01 0.01 0.02 0.02 0.02 0.01
0.13 0.12 0.14 0.15 0.16 0.17 0.17 0.14 0.10 0.04 0.01 0.01 0.00 0.00 0.00 0.00 0.00 0.00 0.00 0.00 0.01 0.01 0.00 0.00 0.00 0.01 0.01 0.02 0.02 0.02 0.01 0.01 0.01 0.02 0.01 0.01 0.01 0.01 0.01 0.02 0.02 0.03 0.03 0.02
0.12 0.12 0.15 0.17 0.18 0.18 0.20 0.18 0.12 0.06 0.02 0.01 0.00 0.00 0.00 0.00 0.00 0.00 0.01 0.01 0.01 0.01 0.00 0.00 0.01 0.01 0.01 0.02 0.03 0.02 0.02 0.01 0.01 0.02 0.02 0.02 0.02 0.02 0.02 0.02 0.01 0.02 0.02 0.02
0.10 0.08 0.09 0.12 0.11 0.13 0.14 0.10 0.09 0.04 0.01 0.00 0.00 0.00 0.00 0.01 0.01 0.01 0.01 0.01 0.01 0.00 0.00 0.00 0.01 0.01 0.02 0.03 0.04 0.03 0.02 0.02 0.03 0.03 0.02 0.02 0.02 0.02 0.02 0.01 0.02 0.02 0.02 0.02
MSLP
1006.82 1007.15 1007.32 1007.37 1007.37 1007.39 1007.47 1007.63 1007.88 1008.18 1008.49 1008.77 1008.99 1009.15 1009.25 1009.35 1009.47 1009.65 1009.91 1010.26 1010.69 1011.16 1011.65 1012.10 1012.49 1012.81 1013.05 1013.24 1013.39 1013.52 1013.66 1013.82 1014.00 1014.19 1014.39 1014.59 1014.79 1014.97 1015.14 1015.31 1015.48 1015.68 1015.89 1016.11
1007.10 1007.25 1007.25 1007.18 1007.12 1007.15 1007.32 1007.62 1008.03 1008.46 1008.86 1009.17 1009.34 1009.39 1009.35 1009.28 1009.26 1009.34 1009.58 1009.97 1010.50 1011.12 1011.76 1012.36 1012.86 1013.25 1013.52 1013.69 1013.79 1013.87 1013.96 1014.08 1014.23 1014.40 1014.59 1014.78 1014.95 1015.10 1015.24 1015.38 1015.54 1015.73 1015.97 1016.24
1007.07 1007.05 1006.89 1006.72 1006.64 1006.74 1007.03 1007.50 1008.08 1008.67 1009.18 1009.51 1009.65 1009.59 1009.39 1009.16 1008.98 1008.96 1009.14 1009.55 1010.15 1010.87 1011.64 1012.36 1012.97 1013.43 1013.74 1013.92 1014.01 1014.07 1014.14 1014.24 1014.39 1014.57 1014.76 1014.94 1015.10 1015.23 1015.33 1015.45 1015.59 1015.79 1016.05 1016.36
1006.72 1006.53 1006.27 1006.06 1006.01 1006.21 1006.66 1007.33 1008.10 1008.86 1009.47 1009.84 1009.93 1009.77 1009.43 1009.02 1008.69 1008.54 1008.65 1009.03 1009.66 1010.45 1011.31 1012.12 1012.82 1013.35 1013.70 1013.90 1014.01 1014.08 1014.17 1014.29 1014.47 1014.68 1014.90 1015.10 1015.26 1015.37 1015.46 1015.55 1015.68 1015.87 1016.14 1016.49
1006.11 1005.82 1005.50 1005.31 1005.35 1005.69 1006.33 1007.20 1008.17 1009.08 1009.78 1010.18 1010.23 1009.96 1009.48 1008.91 1008.42 1008.14 1008.15 1008.49 1009.10 1009.92 1010.82 1011.69 1012.45 1013.03 1013.42 1013.67 1013.81 1013.92 1014.05 1014.23 1014.47 1014.74 1015.01 1015.25 1015.44 1015.56 1015.65 1015.72 1015.83 1016.01 1016.27 1016.62
1005.41 1005.06 1004.76 1004.64 1004.81 1005.33 1006.16 1007.22 1008.35 1009.38 1010.14 1010.54 1010.53 1010.16 1009.54 1008.83 1008.19 1007.78 1007.69 1007.95 1008.53 1009.33 1010.25 1011.14 1011.93 1012.54 1012.98 1013.27 1013.46 1013.63 1013.82 1014.08 1014.39 1014.75 1015.10 1015.40 1015.64 1015.80 1015.89 1015.96 1016.05 1016.20 1016.44 1016.78
1004.76 1004.43 1004.20 1004.21 1004.54 1005.23 1006.24 1007.44 1008.68 1009.77 1010.54 1010.90 1010.81 1010.34 1009.59 1008.75 1007.99 1007.47 1007.28 1007.47 1007.99 1008.76 1009.66 1010.56 1011.35 1011.98 1012.45 1012.77 1013.02 1013.25 1013.53 1013.87 1014.28 1014.72 1015.17 1015.56 1015.86 1016.06 1016.18 1016.25 1016.32 1016.44 1016.64 1016.93
1004.30 1004.05 1003.95 1004.11 1004.60 1005.45 1006.57 1007.86 1009.13 1010.20 1010.92 1011.19 1011.01 1010.42 1009.57 1008.63 1007.78 1007.18 1006.92 1007.05 1007.53 1008.26 1009.12 1010.00 1010.78 1011.42 1011.91 1012.27 1012.57 1012.86 1013.21 1013.63 1014.13 1014.67 1015.21 1015.68 1016.06 1016.32 1016.47 1016.55 1016.61 1016.70 1016.85 1017.08
1004.09 1003.97 1004.03 1004.35 1004.99 1005.94 1007.11 1008.39 1009.60 1010.57 1011.17 1011.32 1011.02 1010.34 1009.41 1008.40 1007.51 1006.88 1006.59 1006.69 1007.13 1007.83 1008.66 1009.51 1010.29 1010.93 1011.43 1011.82 1012.15 1012.50 1012.91 1013.40 1013.98 1014.59 1015.21 1015.76 1016.21 1016.52 1016.72 1016.82 1016.88 1016.93 1017.03 1017.19
1004.10 1004.15 1004.38 1004.85 1005.59 1006.57 1007.71 1008.90 1009.96 1010.76 1011.19 1011.19 1010.76 1010.00 1009.02 1008.01 1007.13 1006.52 1006.26 1006.36 1006.79 1007.47 1008.28 1009.11 1009.87 1010.50 1011.01 1011.43 1011.80 1012.18 1012.64 1013.18 1013.80 1014.47 1015.14 1015.75 1016.25 1016.62 1016.86 1016.99 1017.06 1017.10 1017.16 1017.27
1004.26 1004.48 1004.86 1005.44 1006.22 1007.17 1008.20 1009.20 1010.05 1010.62 1010.85 1010.68 1010.15 1009.34 1008.38 1007.42 1006.61 1006.07 1005.87 1006.01 1006.46 1007.14 1007.93 1008.74 1009.49 1010.12 1010.64 1011.08 1011.48 1011.90 1012.38 1012.95 1013.59 1014.28 1014.98 1015.62 1016.16 1016.58 1016.86 1017.03 1017.12 1017.17 1017.22 1017.30
1004.44 1004.82 1005.32 1005.96 1006.72 1007.55 1008.40 1009.17 1009.75 1010.08 1010.09 1009.78 1009.17 1008.36 1007.46 1006.61 1005.92 1005.50 1005.40 1005.61 1006.09 1006.77 1007.56 1008.35 1009.08 1009.72 1010.26 1010.71 1011.14 1011.58 1012.09 1012.66 1013.31 1014.00 1014.70 1015.35 1015.91 1016.36 1016.69 1016.91 1017.04 1017.13 1017.20 1017.28
1004.59 1005.08 1005.65 1006.28 1006.94 1007.61 1008.23 1008.73 1009.04 1009.12 1008.94 1008.52 1007.89 1007.13 1006.34 1005.63 1005.11 1004.83 1004.84 1005.12 1005.64 1006.32 1007.09 1007.86 1008.58 1009.22 1009.77 1010.26 1010.72 1011.20 1011.72 1012.30 1012.94 1013.62 1014.30 1014.95 1015.52 1016.00 1016.37 1016.64 1016.84 1016.99 1017.11 1017.23
1004.69 1005.24 1005.80 1006.35 1006.87 1007.33 1007.69 1007.90 1007.95 1007.81 1007.49 1007.00 1006.39 1005.72 1005.09 1004.56 1004.21 1004.09 1004.21 1004.55 1005.09 1005.76 1006.49 1007.23 1007.93 1008.57 1009.14 1009.67 1010.18 1010.69 1011.25 1011.84 1012.48 1013.15 1013.81 1014.44 1015.02 1015.52 1015.93 1016.26 1016.53 1016.76 1016.95 1017.13
1004.80 1005.32 1005.81 1006.23 1006.56 1006.77 1006.86 1006.82 1006.63 1006.31 1005.88 1005.37 1004.82 1004.29 1003.83 1003.49 1003.32 1003.34 1003.54 1003.93 1004.45 1005.08 1005.76 1006.45 1007.12 1007.75 1008.35 1008.92 1009.49 1010.06 1010.67 1011.30 1011.95 1012.61 1013.26 1013.88 1014.46 1014.97 1015.42 1015.82 1016.16 1016.47 1016.74 1016.99
1005.00 1005.44 1005.79 1006.03 1006.13 1006.09 1005.92 1005.63 1005.24 1004.78 1004.29 1003.80 1003.35 1002.96 1002.67 1002.52 1002.50 1002.62 1002.89 1003.28 1003.76 1004.32 1004.92 1005.54 1006.17 1006.80 1007.42 1008.05 1008.69 1009.34 1010.01 1010.69 1011.37 1012.05 1012.70 1013.32 1013.90 1014.43 1014.91 1015.35 1015.76 1016.13 1016.48 1016.80
1005.36 1005.66 1005.84 1005.86 1005.72 1005.43 1005.02 1004.52 1003.97 1003.41 1002.90 1002.45 1002.09 1001.84 1001.71 1001.71 1001.81 1002.01 1002.30 1002.66 1003.07 1003.54 1004.05 1004.59 1005.17 1005.78 1006.43 1007.11 1007.83 1008.57 1009.32 1010.07 1010.81 1011.51 1012.19 1012.81 1013.39 1013.93 1014.43 1014.91 1015.35 1015.77 1016.17 1016.53
1005.92 1006.05 1006.02 1005.82 1005.45 1004.93 1004.30 1003.63 1002.95 1002.33 1001.80 1001.40 1001.13 1001.00 1001.00 1001.10 1001.28 1001.51 1001.79 1002.10 1002.43 1002.80 1003.21 1003.67 1004.20 1004.79 1005.47 1006.20 1007.00 1007.83 1008.67 1009.49 1010.29 1011.04 1011.74 1012.38 1012.96 1013.51 1014.02 1014.50 1014.96 1015.39 1015.81 1016.18
1006.62 1006.57 1006.34 1005.93 1005.35 1004.63 1003.83 1003.02 1002.25 1001.58 1001.05 1000.68 1000.48 1000.43 1000.51 1000.67 1000.89 1001.13 1001.38 1001.63 1001.88 1002.16 1002.48 1002.87 1003.35 1003.93 1004.62 1005.40 1006.26 1007.17 1008.09 1008.99 1009.85 1010.64 1011.37 1012.02 1012.61 1013.15 1013.65 1014.12 1014.57 1014.99 1015.39 1015.75
1007.32 1007.11 1006.71 1006.12 1005.37 1004.51 1003.58 1002.67 1001.84 1001.13 1000.60 1000.25 1000.09 1000.08 1000.19 1000.39 1000.62 1000.85 1001.06 1001.26 1001.44 1001.65 1001.90 1002.24 1002.68 1003.25 1003.95 1004.76 1005.66 1006.62 1007.60 1008.55 1009.46 1010.29 1011.04 1011.70 1012.29 1012.82 1013.30 1013.74 1014.16 1014.55 1014.91 1015.23
1007.84 1007.51 1006.98 1006.27 1005.41 1004.46 1003.46 1002.50 1001.63 1000.91 1000.37 1000.03 999.88 999.88 1000.00 1000.19 1000.41 1000.62 1000.81 1000.97 1001.12 1001.28 1001.50 1001.81 1002.23 1002.79 1003.48 1004.30 1005.22 1006.19 1007.19 1008.17 1009.10 1009.94 1010.70 1011.37 1011.96 1012.47 1012.93 1013.34 1013.71 1014.06 1014.37 1014.65
1008.03 1007.62 1007.02 1006.25 1005.35 1004.37 1003.36 1002.40 1001.53 1000.82 1000.29 999.94 999.78 999.77 999.87 1000.05 1000.25 1000.45 1000.62 1000.77 1000.92 1001.07 1001.29 1001.58 1001.99 1002.54 1003.21 1004.01 1004.90 1005.86 1006.84 1007.81 1008.72 1009.56 1010.32 1010.98 1011.56 1012.06 1012.49 1012.87 1013.21 1013.51 1013.78 1014.01
1007.77 1007.32 1006.71 1005.94 1005.07 1004.13 1003.18 1002.27 1001.46 1000.79 1000.27 999.93 999.76 999.73 999.80 999.96 1000.14 1000.33 1000.51 1000.68 1000.84 1001.02 1001.25 1001.55 1001.96 1002.48 1003.12 1003.87 1004.70 1005.60 1006.52 1007.43 1008.31 1009.12 1009.85 1010.50 1011.06 1011.55 1011.97 1012.33 1012.64 1012.91 1013.14 1013.34
1007.05 1006.61 1006.02 1005.33 1004.54 1003.71 1002.88 1002.08 1001.37 1000.76 1000.30 999.98 999.81 999.76 999.82 999.95 1000.13 1000.33 1000.53 1000.72 1000.92 1001.14 1001.40 1001.71 1002.11 1002.60 1003.18 1003.85 1004.60 1005.40 1006.23 1007.06 1007.86 1008.62 1009.31 1009.94 1010.49 1010.97 1011.37 1011.72 1012.01 1012.26 1012.47 1012.66
1005.94 1005.53 1005.02 1004.43 1003.79 1003.12 1002.46 1001.82 1001.25 1000.77 1000.39 1000.12 999.97 999.93 999.98 1000.10 1000.28 1000.49 1000.71 1000.95 1001.19 1001.45 1001.74 1002.06 1002.44 1002.88 1003.38 1003.96 1004.59 1005.27 1005.98 1006.70 1007.42 1008.10 1008.75 1009.34 1009.87 1010.34 1010.74 1011.08 1011.36 1011.59 1011.79 1011.95
1004.60 1004.24 1003.83 1003.38 1002.92 1002.45 1001.99 1001.56 1001.17 1000.84 1000.57 1000.39 1000.29 1000.28 1000.34 1000.47 1000.65 1000.88 1001.13 1001.41 1001.69 1001.98 1002.28 1002.60 1002.95 1003.33 1003.75 1004.21 1004.71 1005.26 1005.84 1006.44 1007.05 1007.66 1008.24 1008.79 1009.29 1009.74 1010.12 1010.45 1010.71 1010.92 1011.10 1011.24
Thickness
5805 5793 5789 5801 5813 5814 5813 5808 5805 5811 5819 5809 5799 5792 5794 5796 5789 5779 5769 5763 5757 5752 5752 5754 5754 5753 5750 5747 5745 5743 5742 5742 5743 5741 5739 5737 5736 5738 5738 5737 5735 5733 5732 5731
5792 5789 5807 5820 5823 5818 5813 5803 5802 5807 5816 5807 5797 5793 5798 5797 5788 5779 5769 5763 5759 5752 5750 5750 5750 5749 5746 5744 5743 5741 5740 5741 5741 5740 5739 5739 5738 5737 5737 5735 5733 5732 5731 5730
5787 5803 5821 5816 5811 5808 5807 5803 5800 5799 5808 5808 5794 5781 5784 5790 5789 5781 5774 5767 5763 5755 5750 5748 5748 5746 5745 5742 5741 5742 5740 5740 5740 5740 5739 5738 5736 5735 5733 5731 5731 5731 5730 5729
5798 5815 5818 5812 5809 5809 5798 5814 5810 5805 5794 5784 5786 5755 5772 5782 5777 5775 5771 5767 5762 5758 5753 5750 5748 5746 5744 5743 5743 5742 5740 5739 5739 5739 5738 5736 5732 5731 5731 5732 5731 5731 5730 5729
5797 5811 5810 5805 5811 5816 5809 5820 5812 5804 5792 5779 5775 5756 5759 5778 5770 5771 5771 5767 5764 5761 5756 5751 5749 5747 5746 5745 5743 5741 5739 5738 5738 5738 5738 5736 5734 5733 5734 5732 5730 5730 5729 5728
5807 5823 5823 5819 5825 5825 5821 5812 5801 5789 5770 5744 5755 5754 5753 5776 5777 5778 5775 5771 5765 5762 5759 5754 5751 5748 5746 5745 5743 5741 5737 5736 5737 5737 5736 5735 5734 5733 5732 5730 5728 5728 5728 5727
5790 5807 5824 5829 5813 5815 5810 5787 5755 5738 5726 5727 5762 5761 5765 5792 5800 5792 5782 5775 5770 5766 5761 5755 5751 5748 5746 5745 5744 5741 5737 5735 5735 5735 5735 5734 5734 5733 5731 5730 5729 5729 5727 5725
5773 5780 5809 5819 5811 5801 5800 5787 5754 5731 5729 5741 5759 5759 5782 5804 5806 5801 5791 5783 5775 5768 5764 5759 5755 5752 5750 5749 5745 5741 5737 5735 5735 5734 5734 5734 5734 5733 5732 5731 5730 5729 5728 5725
5776 5776 5806 5816 5821 5812 5796 5791 5795 5770 5765 5758 5761 5768 5781 5796 5796 5794 5789 5782 5776 5772 5767 5763 5760 5756 5754 5751 5747 5743 5738 5736 5734 5734 5733 5732 5733 5733 5732 5731 5730 5728 5726 5724
5785 5770 5790 5802 5809 5813 5811 5804 5789 5771 5749 5742 5747 5748 5748 5767 5780 5788 5786 5782 5779 5776 5772 5768 5764 5761 5758 5755 5751 5747 5741 5737 5736 5734 5733 5733 5732 5732 5731 5729 5727 5726 5724 5722
5789 5770 5772 5782 5780 5784 5792 5791 5785 5777 5772 5752 5730 5733 5767 5774 5785 5789 5790 5788 5784 5779 5776 5772 5768 5765 5762 5758 5753 5748 5744 5739 5737 5736 5735 5734 5732 5731 5729 5727 5726 5724 5722 5719
5779 5768 5758 5768 5786 5792 5785 5784 5779 5758 5752 5760 5748 5741 5782 5789 5794 5797 5795 5793 5789 5785 5782 5777 5772 5768 5763 5759 5755 5751 5747 5742 5740 5738 5736 5734 5732 5730 5728 5726 5724 5722 5719 5717
5764 5755 5740 5741 5754 5767 5770 5778 5781 5778 5767 5759 5750 5748 5788 5796 5797 5801 5799 5795 5791 5787 5784 5779 5774 5769 5765 5761 5757 5754 5750 5746 5743 5740 5736 5733 5731 5729 5727 5725 5723 5720 5717 5715
5762 5752 5744 5732 5737 5741 5743 5758 5771 5769 5760 5761 5765 5762 5773 5783 5791 5796 5798 5795 5791 5787 5784 5779 5774 5770 5767 5763 5759 5756 5752 5749 5745 5741 5737 5733 5731 5728 5726 5725 5722 5718 5715 5712
5756 5745 5751 5755 5755 5745 5739 5746 5758 5762 5771 5767 5769 5766 5769 5777 5789 5796 5798 5796 5790 5785 5782 5779 5774 5771 5768 5765 5761 5758 5754 5751 5748 5742 5738 5734 5731 5729 5726 5723 5720 5717 5713 5711
5746 5739 5747 5747 5756 5752 5741 5748 5756 5765 5777 5780 5779 5775 5786 5788 5796 5797 5797 5794 5789 5785 5783 5781 5777 5773 5769 5766 5762 5759 5755 5752 5748 5742 5738 5735 5731 5728 5724 5721 5718 5714 5711 5709
5731 5731 5731 5734 5752 5746 5734 5754 5762 5773 5782 5784 5775 5783 5792 5788 5793 5795 5795 5794 5791 5789 5786 5783 5779 5775 5772 5769 5765 5760 5757 5753 5747 5742 5739 5735 5731 5727 5724 5721 5716 5712 5709 5706
5725 5722 5724 5730 5732 5715 5750 5779 5780 5775 5784 5793 5792 5795 5795 5793 5796 5802 5801 5797 5794 5792 5790 5787 5783 5779 5776 5772 5768 5763 5758 5752 5747 5742 5738 5735 5731 5727 5723 5719 5715 5711 5707 5703
5738 5728 5724 5726 5718 5724 5746 5764 5771 5764 5765 5786 5788 5791 5794 5798 5795 5793 5800 5800 5797 5797 5795 5792 5789 5785 5779 5774 5769 5763 5757 5752 5746 5742 5738 5736 5731 5726 5721 5717 5713 5709 5705 5701
5736 5735 5725 5723 5712 5707 5731 5757 5771 5766 5750 5782 5787 5785 5787 5785 5770 5774 5792 5797 5797 5798 5798 5795 5792 5787 5780 5776 5771 5762 5756 5751 5746 5743 5740 5736 5731 5726 5720 5716 5711 5707 5702 5698
5712 5716 5715 5716 5714 5719 5739 5752 5756 5731 5740 5776 5782 5782 5781 5777 5776 5784 5792 5793 5795 5795 5795 5794 5790 5784 5780 5777 5770 5761 5755 5751 5748 5745 5740 5735 5730 5724 5719 5714 5709 5704 5699 5694
5699 5700 5706 5710 5704 5709 5735 5738 5728 5731 5756 5771 5775 5778 5778 5779 5782 5783 5785 5786 5788 5788 5789 5788 5783 5779 5778 5774 5767 5758 5753 5751 5747 5742 5737 5732 5727 5722 5717 5710 5705 5700 5695 5690
5697 5703 5709 5710 5709 5721 5729 5727 5735 5746 5752 5763 5768 5772 5775 5774 5774 5775 5775 5777 5779 5780 5781 5781 5777 5773 5771 5768 5763 5755 5752 5749 5743 5737 5732 5727 5723 5718 5714 5707 5700 5694 5690 5685
5701 5710 5706 5705 5708 5713 5722 5729 5735 5743 5748 5757 5764 5766 5767 5764 5765 5765 5764 5765 5768 5769 5772 5772 5769 5763 5760 5759 5756 5751 5749 5745 5738 5731 5726 5722 5716 5711 5707 5702 5697 5691 5686 5682
5694 5699 5698 5696 5700 5706 5712 5719 5728 5737 5744 5750 5756 5758 5758 5756 5756 5756 5755 5755 5757 5758 5760 5760 5757 5754 5751 5749 5746 5745 5742 5737 5729 5723 5719 5714 5710 5705 5701 5696 5692 5689 5685 5682
5695 5695 5692 5687 5697 5700 5703 5715 5724 5727 5733 5741 5744 5745 5748 5748 5746 5746 5746 5747 5748 5748 5749 5748 5746 5744 5741 5739 5737 5736 5733 5729 5721 5715 5711 5707 5703 5699 5695 5691 5686 5682 5679 5675